Visalia, CA

5:06 PM PST on December 05, 2019 (GMT -0800)
Visalia Municipal

Weather History for KVIS - November, 2019

Change the Weather History Date:

Tuesday, November 12, 2019

  Actual Average Record
Temperature  
Mean Temperature 62 °F -  
Max Temperature 80 °F 66 °F 84 °F (1956)
Min Temperature 45 °F 45 °F 27 °F (1938)
Degree Days  
Heating Degree Days 2    
Growing Degree Days 12 (Base 50)    
Moisture  
Dew Point 43 °F    
Average Humidity 55    
Maximum Humidity 83    
Minimum Humidity 26    
Precipitation  
Precipitation 0.00 in - - ()
Sea Level Pressure  
Sea Level Pressure 30.07 in    
Wind  
Wind Speed 2 mph ()    
Max Wind Speed 6 mph    
Max Gust Speed -    
Visibility 6.8 miles    
Events      
Averages and records for this station are not official NWS values.
T = Trace of Precipitation, MM = Missing Value Source: Averaged Metar Reports

Daily Weather History Graph

Daily Weather History Graph

Search for Another Location

Airport or City:

Astronomy

Nov. 12, 2019 Rise Set
Actual Time 6:31 AM PST 4:51 PM PST
Civil Twilight 6:04 AM PST 5:18 PM PST
Nautical Twilight 5:33 AM PST 5:49 PM PST
Astronomical Twilight 5:02 AM PST 6:19 PM PST
Moon 5:20 PM PST (11/12) 6:29 AM PST (11/12)
Length of Visible Light 11h 14m
Length of Day
10h 19m
Full, 100% of the Moon is Illuminated
Nov 12
Full
Nov 19
Last Quarter
Nov 26
New
Dec 3
First Quarter
Dec 11
Full

Hourly Weather History & Observations

Time (PST) Temp. Windchill Dew Point Humidity Pressure Visibility Wind Dir Wind Speed Gust Speed Precip Events Conditions
12:56 AM 51.1 °F - 41.0 °F 68% 30.11 in 7.0 mi East 4.6 mph - N/A   Clear
1:56 AM 51.1 °F - 39.9 °F 66% 30.11 in 10.0 mi Calm Calm - N/A   Clear
2:56 AM 46.0 °F - 41.0 °F 83% 30.11 in 7.0 mi Calm Calm - N/A   Clear
3:56 AM 45.0 °F 43.5 °F 39.9 °F 82% 30.11 in 6.0 mi East 3.5 mph - N/A   Haze
4:56 AM 45.0 °F 42.6 °F 39.9 °F 82% 30.10 in 10.0 mi SE 4.6 mph - N/A   Clear
5:56 AM 45.0 °F 43.5 °F 39.0 °F 80% 30.10 in 8.0 mi SE 3.5 mph - N/A   Clear
6:56 AM 45.0 °F - 39.0 °F 80% 30.12 in 6.0 mi Calm Calm - N/A   Haze
7:56 AM 52.0 °F - 41.0 °F 66% 30.14 in 6.0 mi Calm Calm - N/A   Haze
8:56 AM 59.0 °F - 43.0 °F 55% 30.15 in 6.0 mi East 3.5 mph - N/A   Haze
9:56 AM 66.0 °F - 44.1 °F 45% 30.14 in 7.0 mi Calm Calm - N/A   Clear
10:56 AM 72.0 °F - 45.0 °F 38% 30.12 in 6.0 mi Calm Calm - N/A   Haze
11:56 AM 73.9 °F - 44.1 °F 34% 30.09 in 5.0 mi North 3.5 mph - N/A   Haze
12:56 PM 77.0 °F - 43.0 °F 30% 30.05 in 6.0 mi Variable 3.5 mph - N/A   Haze
1:56 PM 80.1 °F - 42.1 °F 26% 30.04 in 6.0 mi NNW 4.6 mph - N/A   Haze
2:56 PM 80.1 °F - 44.1 °F 28% 30.02 in 7.0 mi North 5.8 mph - N/A   Clear
3:56 PM 78.1 °F - 41.0 °F 27% 30.02 in 8.0 mi NNW 5.8 mph - N/A   Clear
4:15 PM 77.0 °F - 44.6 °F 32% 29.99 in 2.0 mi North 3.5 mph - N/A   Haze
4:25 PM 75.2 °F - 42.8 °F 31% 29.99 in 8.0 mi North 3.5 mph - N/A   Clear
4:56 PM 72.0 °F - 44.1 °F 37% 30.01 in 8.0 mi Calm Calm - N/A   Clear
5:56 PM 64.9 °F - 45.0 °F 48% 30.01 in 7.0 mi Calm Calm - N/A   Clear
6:56 PM 62.1 °F - 45.0 °F 53% 30.03 in 6.0 mi Calm Calm - N/A   Haze
7:56 PM 57.9 °F - 45.0 °F 62% 30.04 in 7.0 mi WNW 3.5 mph - N/A   Clear
8:56 PM 55.0 °F - 43.0 °F 64% 30.05 in 7.0 mi Calm Calm - N/A   Clear
9:56 PM 54.0 °F - 45.0 °F 72% 30.04 in 7.0 mi Calm Calm - N/A   Clear
10:56 PM 52.0 °F - 45.0 °F 77% 30.05 in 7.0 mi SE 4.6 mph - N/A   Clear
11:56 PM 53.1 °F - 44.1 °F 71% 30.05 in 7.0 mi Calm Calm - N/A   Clear